Els Cortals - Les Guilleries





Hora UTC 20:45
Temperatura 1.2 ºC
Humitat 84.0 %
Pressió 996.8 hPa
Pluja 0.0 mm
Velocitat vent 1.6 km/h
Direcció vent WSW

Dades diàries 2021-11-27



Hora UTC (hivern +1h; estiu +2h)
Temperatura (ºC) Humitat (%) Pressió (hPa) Velocitat vent (km/h) Precipitació (mm)
Hora UTC Aire Humitat Pressió Vel. Dir. Vel. Max Dir. Intent. màx 5 min.
00:00 1.0 94.0 997.3 11.3 WSW 11.3 0.0
00:05 1.0 94.0 997.2 8.0 SSW 14.5 0.0
00:10 1.1 94.0 997.1 9.7 WSW 16.1 0.0
00:15 1.2 94.0 997.0 8.0 SW 20.9 0.0
00:20 1.2 94.0 996.9 11.3 SW 20.9 0.0
00:25 1.2 94.0 996.7 9.7 WSW 19.3 0.0
00:30 1.3 94.0 996.4 8.0 SSW 19.3 0.0
00:35 1.2 94.0 996.3 14.5 WSW 20.9 0.0
00:40 1.2 94.0 996.3 9.7 N 25.7 0.0
00:45 1.2 94.0 996.6 11.3 WNW 32.2 0.0
00:55 1.1 94.0 996.4 8.0 NW 30.6 0.0
01:00 1.1 94.0 996.4 16.1 SW 25.7 0.0
01:05 0.9 94.0 996.2 12.9 WSW 24.1 0.0
01:10 0.9 94.0 996.3 9.7 WSW 32.2 0.3
01:15 0.8 94.0 996.4 16.1 W 32.2 0.0
01:20 0.7 94.0 996.3 8.0 WSW 29.0 0.0
01:25 0.7 94.0 996.1 8.0 WNW 29.0 0.0
01:30 0.7 94.0 996.1 11.3 W 22.5 0.0
01:35 0.6 94.0 996.1 9.7 WSW 22.5 0.0
01:40 0.6 94.0 996.1 8.0 WSW 29.0 0.0
01:45 0.6 94.0 996.0 11.3 SW 29.0 0.0
01:50 0.6 94.0 995.9 12.9 W 22.5 0.0
01:55 0.6 94.0 995.8 17.7 WNW 22.5 0.0
02:00 0.6 94.0 995.8 12.9 WSW 22.5 0.0
02:05 0.5 94.0 995.9 17.7 W 25.7 0.0
02:10 0.4 94.0 995.8 16.1 WSW 25.7 0.0
02:15 0.4 94.0 995.7 16.1 W 24.1 0.0
02:20 0.4 94.0 995.7 17.7 SW 25.7 0.0
02:25 0.4 94.0 995.6 12.9 SW 25.7 0.0
02:30 0.4 94.0 995.6 16.1 WSW 24.1 0.0
02:35 0.5 94.0 995.5 14.5 WSW 24.1 0.0
02:40 0.5 94.0 995.5 16.1 WSW 24.1 0.0
02:45 0.5 94.0 995.4 19.3 W 24.1 0.0
02:50 0.5 94.0 995.4 11.3 SW 25.7 0.0
02:55 0.5 93.0 995.4 12.9 WSW 24.1 0.0
03:00 0.5 93.0 995.3 12.9 SW 24.1 0.0
03:05 0.4 93.0 995.2 11.3 SW 20.9 0.0
03:10 0.4 93.0 995.0 12.9 WSW 19.3 0.0
03:15 0.3 93.0 994.9 12.9 SW 17.7 0.0
03:20 0.2 93.0 994.8 12.9 SW 19.3 0.0
03:25 0.2 94.0 994.8 8.0 WSW 24.1 0.0
03:30 0.1 93.0 994.8 12.9 WSW 24.1 0.0
03:35 0.1 93.0 994.5 12.9 WNW 22.5 0.0
03:40 0.1 93.0 994.3 12.9 SW 20.9 0.0
03:45 0.1 94.0 994.2 8.0 WNW 22.5 0.0
03:50 0.1 94.0 994.1 9.7 WNW 22.5 0.0
03:55 0.0 94.0 994.1 17.7 WNW 20.9 0.0
04:00 -0.1 94.0 994.0 9.7 W 20.9 0.0
04:05 -0.1 94.0 994.0 14.5 WSW 22.5 0.0
04:10 -0.2 93.0 993.9 12.9 WSW 25.7 0.0
04:15 -0.2 93.0 993.9 12.9 WSW 30.6 0.0
04:20 -0.3 93.0 993.9 14.5 W 30.6 0.0
04:25 -0.3 93.0 993.8 9.7 WSW 24.1 0.0
04:30 -0.3 93.0 993.7 14.5 WSW 24.1 0.0
04:35 -0.4 93.0 993.7 12.9 NW 24.1 0.0
04:40 -0.4 93.0 993.6 8.0 SSW 29.0 0.0
04:45 -0.5 93.0 993.6 11.3 SW 29.0 0.0
04:50 -0.5 93.0 993.5 1.6 W 25.7 0.0
04:55 -0.4 93.0 993.5 11.3 SW 29.0 0.0
05:00 -0.3 93.0 993.4 9.7 SW 29.0 0.0
05:05 -0.2 93.0 993.3 8.0 SW 35.4 0.0
05:10 -0.1 93.0 993.2 14.5 W 35.4 0.0
05:15 0.0 93.0 993.2 11.3 W 37.0 0.0
05:20 0.1 93.0 993.1 19.3 W 37.0 0.0
05:25 0.2 92.0 993.1 12.9 WSW 33.8 0.0
05:25 0.2 92.0 993.1 11.3 W 33.8 0.0
05:30 0.1 92.0 993.0 17.7 W 29.0 0.0
05:35 0.1 93.0 992.8 16.1 WNW 30.6 0.0
05:40 0.0 93.0 993.0 20.9 WNW 33.8 0.0
05:45 -0.1 93.0 993.0 17.7 WSW 33.8 0.0
05:50 -0.2 93.0 993.0 17.7 WSW 32.2 0.0
05:55 -0.3 93.0 992.9 9.7 WNW 33.8 0.0
06:00 -0.3 93.0 992.9 16.1 SW 33.8 0.0
06:05 -0.3 93.0 993.0 22.5 SW 33.8 0.0
06:10 -0.4 94.0 993.0 17.7 SW 37.0 0.0
06:15 -0.4 94.0 993.0 14.5 SW 37.0 0.0
06:20 -0.4 94.0 992.9 22.5 WSW 37.0 0.0
06:25 -0.4 94.0 993.1 16.1 WNW 32.2 0.0
06:30 -0.3 94.0 993.0 12.9 W 32.2 0.0
06:35 -0.3 94.0 992.7 14.5 SSW 35.4 0.0
06:40 -0.3 94.0 992.7 17.7 SW 35.4 0.0
06:50 -0.2 94.0 992.6 25.7 W 40.2 0.0
06:50 -0.2 94.0 992.7 14.5 W 40.2 0.0
07:00 -0.2 95.0 992.6 29.0 SW 43.5 0.0
07:00 -0.1 95.0 992.5 22.5 WSW 43.5 0.0
07:10 0.0
07:15 0.0
07:20 0.0
07:25 0.0
07:30 0.0
07:35 0.0
07:40 0.0
07:45 0.0
07:50 0.0
07:55 0.0
08:00 0.0
08:05 0.0
08:10 0.0
08:15 0.8 95.0 992.1 20.9 WNW 43.5 0.0
08:20 0.8 95.0 992.1 8.0 SSW 38.6 0.0
08:25 0.9 95.0 992.2 19.3 SW 45.1 0.0
08:30 0.9 95.0 992.3 24.1 WSW 46.7 0.0
08:35 0.9 95.0 992.5 14.5 W 46.7 0.0
08:40 0.8 95.0 992.7 17.7 SSW 35.4 0.0
08:45 0.8 95.0 992.8 12.9 SSW 32.2 0.0
08:50 0.8 95.0 992.7 19.3 WSW 29.0 0.0
08:55 0.8 95.0 992.8 16.1 SW 30.6 0.0
09:00 0.8 95.0 992.9 14.5 SW 30.6 0.0
09:05 0.9 95.0 992.8 16.1 SW 32.2 0.0
09:10 0.9 95.0 992.9 16.1 SSW 32.2 0.0
09:15 0.8 95.0 992.9 24.1 WSW 29.0 0.0
09:20 0.9 95.0 993.0 16.1 SW 29.0 0.0
09:25 0.9 95.0 993.2 12.9 SSW 25.7 0.0
09:30 1.0 95.0 993.2 11.3 WSW 25.7 0.0
09:35 1.2 95.0 993.3 19.3 WNW 30.6 0.0
09:40 1.3 95.0 993.2 9.7 SW 30.6 0.0
09:45 1.3 95.0 993.3 16.1 SW 25.7 0.0
09:50 1.3 95.0 993.4 12.9 SW 24.1 0.0
09:55 1.5 95.0 993.3 11.3 SW 25.7 0.0
10:00 1.6 95.0 993.4 16.1 SW 25.7 0.0
10:00 1.7 95.0 993.5 9.7 SW 30.6 0.0
10:05 1.7 95.0 993.5 12.9 SW 30.6 0.0
10:10 1.8 95.0 993.4 1.6 NE 25.7 0.0
10:15 1.7 95.0 993.5 16.1 SW 32.2 0.0
10:20 1.7 95.0 993.6 14.5 SW 33.8 0.0
10:25 1.7 95.0 993.8 8.0 S 33.8 0.0
10:30 1.7 95.0 993.7 16.1 SW 32.2 0.0
10:35 1.7 95.0 993.6 9.7 WSW 32.2 0.0
10:40 1.8 95.0 993.3 11.3 SW 32.2 0.0
10:45 1.9 95.0 993.3 14.5 WSW 32.2 0.0
10:50 2.1 95.0 993.4 9.7 SW 30.6 0.0
10:55 2.2 95.0 993.4 4.8 SSW 29.0 0.0
11:00 2.3 95.0 993.4 12.9 NW 24.1 0.0
11:05 2.4 95.0 993.5 11.3 SSW 24.1 0.0
11:10 2.5 95.0 993.5 12.9 W 24.1 0.0
11:15 2.6 95.0 993.4 9.7 SW 24.1 0.0
11:20 2.6 95.0 993.4 11.3 W 24.1 0.0
11:25 2.5 95.0 993.5 24.1 WSW 30.6 0.0
11:30 2.5 100.0 993.3 14.5 SW 30.6 0.0
11:35 2.5 94.0 993.3 14.5 W 24.1 0.0
11:40 2.5 95.0 993.3 16.1 W 33.8 0.0
11:45 2.6 95.0 993.4 11.3 SSW 33.8 0.0
11:50 2.6 95.0 993.6 9.7 WSW 32.2 0.0
11:55 2.7 94.0 993.7 16.1 WSW 25.7 0.0
12:00 2.8 94.0 993.5 11.3 WSW 22.5 0.0
12:10 2.8 94.0 993.6 11.3 SW 19.3 0.0
12:15 3.0 94.0 993.5 8.0 SSW 19.3 0.0
12:20 0.0
12:25 0.0
12:30 0.0
12:30 0.0
12:35 0.0
12:40 0.0
12:45 0.0
12:50 0.0
12:55 0.0
13:00 0.0
13:10 0.0
13:15 0.0
13:20 4.9 93.0 993.4 0.0 WNW 14.5 0.0
13:25 5.1 93.0 993.4 1.6 NW 19.3 0.0
13:30 5.2 93.0 993.2 0.0 SW 19.3 0.0
13:30 5.2 93.0 993.2 0.0 NNE 14.5 0.0
13:40 5.4 93.0 993.2 0.0 NNW 12.9 0.0
13:45 5.5 93.0 993.5 1.6 NE 12.9 0.0
13:50 5.6 92.0 993.5 3.2 N 14.5 0.0
13:55 5.6 92.0 993.3 3.2 ENE 14.5 0.0
14:00 5.6 91.0 993.3 0.0 NE 14.5 0.0
14:05 5.6 91.0 993.6 0.0 NNE 11.3 0.0
14:10 5.6 91.0 993.6 0.0 ENE 11.3 0.0
14:15 5.6 90.0 993.6 0.0 NNW 11.3 0.0
14:20 5.6 91.0 993.8 0.0 NW 12.9 0.0
14:25 5.6 91.0 993.8 0.0 SE 14.5 0.0
14:30 5.6 91.0 993.8 0.0 NNE 14.5 0.0
14:35 5.6 91.0 994.2 0.0 NNE 6.4 0.0
14:40 5.6 91.0 994.3 0.0 NNE 0.0 0.0
14:45 5.5 90.0 994.4 0.0 NNE 0.0 0.0
14:50 5.4 90.0 994.4 0.0 NNE 0.0 0.0
14:55 5.3 90.0 994.3 0.0 NNE 0.0 0.0
15:00 5.3 90.0 994.4 0.0 NNE 0.0 0.0
15:05 5.2 89.0 994.6 0.0 NNE 0.0 0.0
15:10 5.2 89.0 994.5 0.0 SE 3.2 0.0
15:15 5.1 89.0 994.5 0.0 SE 3.2 0.0
15:20 5.1 89.0 994.5 0.0 SE 0.0 0.0
15:25 5.1 90.0 994.6 0.0 SE 0.0 0.0
15:30 5.1 90.0 994.7 0.0 SE 0.0 0.0
15:35 5.1 90.0 994.7 0.0 SE 0.0 0.0
15:40 5.0 90.0 994.8 0.0 SE 0.0 0.0
15:45 4.9 90.0 994.9 0.0 SE 0.0 0.0
15:50 4.8 90.0 994.9 0.0 SE 0.0 0.0
15:55 4.8 90.0 995.0 0.0 SE 0.0 0.0
16:00 4.8 90.0 995.2 0.0 SE 0.0 0.0
16:05 4.7 90.0 995.1 0.0 SE 0.0 0.0
16:10 4.6 90.0 995.3 0.0 S 8.0 0.0
16:15 4.4 89.0 995.4 0.0 S 8.0 0.0
16:20 4.3 89.0 995.3 0.0 S 0.0 0.0
16:25 4.3 89.0 995.3 0.0 S 0.0 0.0
16:30 4.2 89.0 995.4 0.0 S 0.0 0.0
16:35 4.1 89.0 995.3 0.0 S 0.0 0.0
16:40 3.9 89.0 995.3 0.0 S 0.0 0.0
16:45 3.8 89.0 995.3 0.0 S 0.0 0.0
16:50 3.8 90.0 995.4 0.0 S 0.0 0.0
16:55 3.7 90.0 995.4 0.0 S 0.0 0.0
17:00 3.6 90.0 995.5 0.0 SW 0.0 0.0
17:05 3.5 90.0 995.5 0.0 SW 0.0 0.0
17:10 3.4 90.0 995.6 0.0 SW 0.0 0.0
17:15 3.3 90.0 995.6 0.0 SW 0.0 0.0
17:20 3.2 90.0 995.8 1.6 NW 4.8 0.0
17:25 3.1 90.0 995.7 0.0 SW 6.4 0.0
17:30 2.9 90.0 995.8 1.6 SW 12.9 0.0
17:35 2.9 90.0 995.7 0.0 SW 12.9 0.0
17:40 2.8 90.0 996.0 1.6 NW 14.5 0.0
17:45 2.8 90.0 995.8 4.8 WNW 14.5 0.0
17:50 2.8 90.0 995.9 8.0 SW 14.5 0.0
17:55 2.7 90.0 996.0 4.8 SW 14.5 0.0
18:00 2.7 90.0 996.1 0.0 WSW 14.5 0.0
18:05 2.7 90.0 996.0 0.0 WSW 11.3 0.0
18:10 2.7 91.0 996.1 6.4 WSW 9.7 0.0
18:15 2.6 90.0 996.1 3.2 SW 11.3 0.0
18:20 2.6 91.0 996.2 8.0 W 11.3 0.0
18:25 2.6 91.0 996.4 0.0 WNW 11.3 0.0
18:30 2.5 91.0 996.4 1.6 WSW 9.7 0.0
18:35 2.4 91.0 996.4 1.6 WSW 8.0 0.0
18:40 2.3 91.0 996.4 0.0 WSW 6.4 0.0
18:45 2.3 91.0 996.4 0.0 WSW 6.4 0.0
18:50 2.3 91.0 996.4 0.0 WSW 8.0 0.0
18:55 2.2 91.0 996.4 1.6 WSW 8.0 0.0
19:00 2.1 91.0 996.4 0.0 WSW 8.0 0.0
19:05 2.0 91.0 996.4 0.0 WSW 11.3 0.0
19:05 1.9 91.0 996.5 1.6 W 11.3 0.0
19:15 1.8 90.0 996.5 3.2 SW 8.0 0.0
19:15 1.7 90.0 996.2 6.4 SW 9.7 0.0
19:20 1.7 90.0 996.4 6.4 SW 12.9 0.0
19:25 1.6 90.0 996.4 1.6 WSW 12.9 0.0
19:30 1.6 90.0 996.6 0.0 WSW 12.9 0.0
19:35 1.6 90.0 996.5 0.0 WSW 3.2 0.0
19:40 1.6 90.0 996.6 3.2 WSW 9.7 0.0
19:45 1.5 90.0 996.8 4.8 SSW 14.5 0.0
19:50 1.4 90.0 996.7 1.6 WSW 14.5 0.0
19:55 1.3 90.0 996.6 3.2 WSW 14.5 0.0
20:00 1.3 90.0 996.8 1.6 WNW 11.3 0.0
20:05 1.3 90.0 996.8 6.4 WSW 11.3 0.0
20:10 1.3 90.0 996.7 9.7 SW 14.5 0.0
20:15 1.3 90.0 996.8 6.4 W 14.5 0.0
20:20 1.3 89.0 996.8 8.0 W 16.1 0.0
20:25 1.2 88.0 996.7 11.3 WSW 17.7 0.0
20:30 1.2 87.0 996.7 11.3 WSW 17.7 0.0
20:35 1.2 85.0 996.8 8.0 SW 19.3 0.0
20:40 1.2 84.0 996.8 0.0 W 19.3 0.0
20:45 1.2 84.0 996.8 1.6 WSW 17.7 0.0
Màxima 5.7 100.0 997.3 29.0 SW 46.7 0.3
Mínima -0.5 84.0 992.1
Total 0.3